Regional Weather Roundup
Issued by NWS

Home | Current Version | Previous Version | Text Only | Print | Product List | Glossary Off
Versions: 1 2 3 4 5 6 7 8 9 10 11 12 13 14 15 16 17 18 19 20 21 22 23 24 25 26 27 28 29 30 31 32 33 34 35 36 37 38 39 40 41 42 43 44 45 46 47 48 49 50

000
ASUS43 KBIS 201402
RWRND

NORTH DAKOTA REGIONAL WEATHER ROUNDUP
NATIONAL WEATHER SERVICE BISMARCK ND
900 AM CDT WED SEP 20 2017

NOTE: "FAIR" INDICATES FEW OR NO CLOUDS BELOW 12,000 FEET WITH NO
SIGNIFICANT WEATHER AND/OR OBSTRUCTIONS TO VISIBILITY.


NDZ001>003-009>011-017-201500-
NORTHWEST NORTH DAKOTA

CITY           SKY/WX    TMP DP  RH WIND       PRES   REMARKS
WILLISTON      SUNNY     46  40  79 SW10      29.60R
MINOT          SUNNY     50  42  74 SW10      29.60R
MINOT AFB      SUNNY     49  42  77 S10       29.58S
$$

NDZ018>021-031>035-040>046-201500-
SOUTHWEST NORTH DAKOTA

CITY           SKY/WX    TMP DP  RH WIND       PRES   REMARKS
BISMARCK       SUNNY     49  43  80 SW7       29.72R
DICKINSON      SUNNY     47  40  76 SW17      29.67S
GARRISON         N/A     48  44  86 SW10      29.65R
HETTINGER ARPT SUNNY     44  40  85 CALM      29.76R
$$

NDZ004>008-012>016-024-026-027-054-201500-
NORTHEAST NORTH DAKOTA

CITY           SKY/WX    TMP DP  RH WIND       PRES   REMARKS
GRAND FORKS    MOSUNNY   54  50  86 SW8       29.65R
GRND FRKS AFB  SUNNY     55  48  76 W12       29.65R
DEVILS LAKE    SUNNY     51  44  77 SW16      29.65R
$$

NDZ022-023-025-028>030-036>039-047>053-201500-
SOUTHEAST NORTH DAKOTA

CITY           SKY/WX    TMP DP  RH WIND       PRES   REMARKS
FARGO            N/A     55  48  77 W10       29.70R
JAMESTOWN      SUNNY     51  43  74 W10       29.71R
$$




USA.gov is the U.S. government's official web portal to all federal, state and local government web resources and services.